Location: Newark
(33.6439°N, 114.9881°W)
Time: 20:01:41
(UTC+00:00)

Tiros 1 - Pass Details

Date: 24 July 2019
Orbit: 630 x 664 km, 48.4° (Epoch: 17 August)

Event Time Altitude Azimuth Distance (km) Brightness Sun altitude
Rises 01:02:30 0° 310° (NW) 2,993 11.6 19.8°
Reaches altitude 10° 01:04:52 10° 312° (NW) 2,076 11.0 19.3°
Maximum altitude 01:09:40 73° 37° (NE) 687 7.5 18.3°
Drops below altitude 10° 01:14:24 10° 123° (ESE) 2,051 9.2 17.4°
Sets 01:16:43 0° 125° (SE) 2,954 10.0 16.9°
